Weather in Serkovo

Russia / Vladimir Oblast     56˚11′36″N   41˚56′54″E
temp.,
°C
wind,
m/s
gust,
m/s
humid.,
%
clouds,
%
prec.,
mm/h
press.,
hPa
HPBL,
m
18 january, mon
mon1800:00−24˚nnw11992 0.0 101920
03:00−23˚n129830 0.0 102020
06:00−24˚sw119893 0.0 102020
09:00−24˚w119776 0.0 102020
12:00−19˚e009068 0.0 1020147
15:00−19˚s129482 0.0 102051
18:00−22˚ese009788 0.0 102020
21:00−22˚s119694 0.0 102020
19 january, tue
tue1900:00−21˚nw1196100 0.0 101920
03:00−21˚ene1196100 0.0 101920
06:00−20˚ene1196100 0.0 101820
09:00−20˚nne1195100 0.0 101822
12:00−18˚ene0089100 0.0 1017204
15:00−17˚n0191100 0.0 1016183
18:00−18˚n1296100 0.0 101626
21:00−18˚nw1197100 0.1 101726
20 january, wed
wed2000:00−18˚wnw1297100 0.1 101621
03:00−17˚nw2297100 0.1 101788
06:00−17˚nw249797 0.1 1017163
09:00−17˚wnw259796 0.2 1017149
12:00−14˚wnw259381 0.1 1018245
15:00−13˚w369584 0.1 1018224
18:00−16˚w369785 0.0 1019132
21:00−17˚w359746 0.0 1020104
21 january, thu
thu2100:00−17˚w35970 0.0 102198
03:00−18˚wsw24970 0.0 102177
06:00−18˚sw359772 0.0 102197
09:00−17˚ssw389586 0.0 1020199
12:00−13˚ssw51086100 0.0 1018326
15:00−11˚ssw71484100 0.0 1013508
18:00−9˚sw71593100 1.2 1010736
21:00−7˚sw71693100 1.8 1008668
22 january, fri
fri2200:00−5˚sw71594100 0.9 1006621
03:00−2˚wsw61596100 3.1 1004729
06:00w61497100 1.1 1004771
09:00+1˚wsw61393100 1.1 1005641
12:00+1˚w51098100 0.4 1008501
15:00+1˚w4898100 0.8 1009321
18:00w2699100 0.3 1011221
21:00−5˚ene3598100 0.7 1013141